STARLINK-3564, 52302

Orbit data source: Space-Track

STARLINK-3564, 52302 is a payload satellite owned by SpaceX/Seattle (US) in LEO that was launched on Thu, 21 Apr 2022 UTC via an FALCON 9 launch vehicle from the Air Force Eastern Test Range (AFETR). Payload-class satellites include a variety of spacecraft equipped with specific instruments for various scientific and technological missions. These include communications satellites like Starlink; space stations such as the ISS; scientific satellites like the Hubble; Earth observation satellites from companies like Planet Labs, Umbra, and HawkEye 360; GPS; miniature CubeSats for education and research; and military/defense satellites.

Loading next visibility...
Identifier
52302, 2022-041AT
Orbit
LEO
Country
Flag of USUS
Related business
Manufacturer
SpaceX/Seattle
Mission
Operational Commercial Communications
Bus & Motor
STARLINK, Unknown motor
Mass
297 kg wet, ~275 kg dry
Launch date (UTC)
2022-04-21 (4 years ago)
Launch vehicle
FALCON 9
Launch site
Air Force Eastern Test Range (AFETR)
Object type
Payload
Rocket body
Debris
Shape & HBR
Box + 1 Pan, 10.1 m
Radar Cross Section
11.087 m², Large (>1 m²)

Expand to show TLE details & history
Last TLE update: 16 hours ago

TLE from 16 hours ago
0 STARLINK-3564
1 52302U 22041AT  26175.25002315  .00113711  00000-0  49829-2 0  9998
2 52302  53.1598 330.2944 0001046 157.3853 128.9265 15.21117753  5802
Epoch: 2026-06-24T06:00Z
TLE epoch observation values (Epoch: 2026-06-24T06:00:02.000Z)
Latitude
-50.34826°
Longitude
-96.14866°
Altitude
520.313 km
Speed
7.603 km/s
True Right ascension
17h 45m 04s
True Declination
-50° 10' 24"
Sunlit
Object was in full shadow at epoch
Visualization orbit readout
Latitude
Unknown
Longitude
Unknown
Altitude
Unknown
Speed
Unknown
Apparent Right ascension
Unknown
Apparent Declination
Unknown
Sunlit
N/A
Visualization observer readout
Local Sidereal Time
08:54:04
Azimuth
Unknown
Elevation
Unknown
Doppler factor
Unknown
Orbital elements
Apogee altitude
503.443 km
Perigee altitude
502.004 km
Semi-major axis
6,880.86 km
Eccentricity
0.0001
Inclination
53.1598°
RAAN
330.2944°
Arg. of periapsis
157.3853°
True anomaly
128.93582°
Mean anomaly
128.9265°
Eccentric anomaly
128.93116°
Mean motion
3.80259 °/min
Orbital period
94.67 mins
BSTAR
0.0049829
Loading maneuver chart data...
Computing Atmospheric mass density...
Loading historical data...
Loading historical data...
Loading historical data...
Loading historical data...
Loading historical data...
Loading historical data...
Loading historical data...

Documentation

Showing up to 5 results
|